Time,TemperatureF,DewpointF,PressureIn,WindDirection,WindDirectionDegrees,WindSpeedMPH,WindSpeedGustMPH,Humidity,HourlyPrecipIn,Conditions,Clouds,dailyrainin,SoftwareType,DateUTC
2013-03-16 00:02:00,29.0,27.0,29.85,East,92,10.0,23.0,92,0.00,,,0.05,,2013-03-16 05:02:00,
2013-03-16 00:12:00,29.0,27.0,29.85,East,92,10.0,23.0,92,0.00,,,0.05,,2013-03-16 05:12:00,
2013-03-16 00:21:00,29.0,27.0,29.84,East,82,11.0,19.0,94,0.00,,,0.05,,2013-03-16 05:21:00,
2013-03-16 00:32:00,29.0,27.0,29.85,ENE,74,13.0,24.0,94,0.00,,,0.05,,2013-03-16 05:32:00,
2013-03-16 00:42:00,29.0,27.0,29.85,ENE,74,13.0,24.0,94,0.00,,,0.05,,2013-03-16 05:42:00,
2013-03-16 00:53:00,29.0,27.0,29.85,NE,43,12.0,21.0,94,0.00,,,0.05,,2013-03-16 05:53:00,
2013-03-16 01:02:00,29.0,27.0,29.85,ENE,73,10.0,20.0,94,0.00,,,0.05,,2013-03-16 06:02:00,
2013-03-16 01:12:00,29.0,27.0,29.85,ENE,73,10.0,20.0,94,0.00,,,0.05,,2013-03-16 06:12:00,
2013-03-16 01:22:00,29.0,27.0,29.84,East,90,12.0,26.0,93,0.00,,,0.05,,2013-03-16 06:22:00,
2013-03-16 01:32:00,28.0,26.0,29.84,East,91,7.0,23.0,93,0.00,,,0.05,,2013-03-16 06:32:00,
2013-03-16 01:42:00,28.0,26.0,29.84,East,91,7.0,23.0,93,0.00,,,0.05,,2013-03-16 06:42:00,
2013-03-16 01:52:00,28.0,26.0,29.84,East,86,7.0,21.0,93,0.00,,,0.05,,2013-03-16 06:52:00,
2013-03-16 02:02:00,28.0,26.0,29.84,NE,53,10.0,28.0,93,0.00,,,0.05,,2013-03-16 07:02:00,
2013-03-16 02:12:00,28.0,26.0,29.84,NE,53,10.0,28.0,93,0.00,,,0.05,,2013-03-16 07:12:00,
2013-03-16 02:22:00,28.0,27.0,29.85,ENE,71,7.0,19.0,94,0.00,,,0.05,,2013-03-16 07:22:00,
2013-03-16 02:32:00,28.0,27.0,29.85,East,82,12.0,18.0,94,0.00,,,0.05,,2013-03-16 07:32:00,
2013-03-16 02:42:00,28.0,27.0,29.85,East,82,12.0,18.0,94,0.00,,,0.05,,2013-03-16 07:42:00,
2013-03-16 02:52:00,28.0,26.0,29.84,ENE,72,12.0,19.0,92,0.00,,,0.05,,2013-03-16 07:52:00,
2013-03-16 03:02:00,28.0,26.0,29.85,East,87,11.0,18.0,93,0.00,,,0.05,,2013-03-16 08:02:00,
2013-03-16 03:12:00,28.0,26.0,29.85,East,87,11.0,18.0,93,0.00,,,0.05,,2013-03-16 08:12:00,
2013-03-16 03:23:00,28.0,26.0,29.84,East,81,10.0,19.0,92,0.00,,,0.05,,2013-03-16 08:23:00,
2013-03-16 03:32:00,28.0,26.0,29.84,ENE,59,11.0,22.0,93,0.00,,,0.05,,2013-03-16 08:32:00,
2013-03-16 03:42:00,28.0,26.0,29.84,ENE,59,11.0,22.0,93,0.00,,,0.05,,2013-03-16 08:42:00,
2013-03-16 03:52:00,28.0,26.0,29.84,ENE,78,8.0,25.0,93,0.00,,,0.05,,2013-03-16 08:52:00,
2013-03-16 04:01:00,28.0,26.0,29.85,ENE,59,8.0,19.0,92,0.00,,,0.05,,2013-03-16 09:01:00,
2013-03-16 04:12:00,28.0,26.0,29.85,ENE,59,8.0,19.0,92,0.00,,,0.05,,2013-03-16 09:12:00,
2013-03-16 04:22:00,28.0,26.0,29.83,ENE,74,10.0,14.0,93,0.00,,,0.05,,2013-03-16 09:22:00,
2013-03-16 04:32:00,27.0,25.0,29.84,ENE,61,7.0,19.0,92,0.00,,,0.05,,2013-03-16 09:32:00,
2013-03-16 04:42:00,27.0,25.0,29.84,ENE,61,7.0,19.0,92,0.00,,,0.05,,2013-03-16 09:42:00,
2013-03-16 04:53:00,27.0,25.0,29.84,East,87,8.0,22.0,91,0.00,,,0.05,,2013-03-16 09:53:00,
2013-03-16 05:03:00,27.0,25.0,29.85,ENE,63,6.0,16.0,91,0.00,,,0.05,,2013-03-16 10:03:00,
2013-03-16 05:12:00,27.0,25.0,29.85,ENE,63,6.0,16.0,91,0.00,,,0.05,,2013-03-16 10:12:00,
2013-03-16 05:22:00,27.0,25.0,29.84,East,90,9.0,18.0,92,0.00,,,0.05,,2013-03-16 10:22:00,
2013-03-16 05:32:00,27.0,25.0,29.86,East,84,8.0,16.0,93,0.00,,,0.05,,2013-03-16 10:32:00,
2013-03-16 05:42:00,27.0,25.0,29.86,East,84,8.0,16.0,93,0.00,,,0.05,,2013-03-16 10:42:00,
2013-03-16 05:53:00,27.0,25.0,29.86,ENE,69,9.0,16.0,93,0.00,,,0.05,,2013-03-16 10:53:00,
2013-03-16 06:03:00,27.0,26.0,29.87,NE,36,7.0,14.0,94,0.00,,,0.05,,2013-03-16 11:03:00,
2013-03-16 06:12:00,27.0,26.0,29.87,NE,36,7.0,14.0,94,0.00,,,0.05,,2013-03-16 11:12:00,
2013-03-16 06:22:00,27.0,26.0,29.87,NE,38,9.0,17.0,94,0.00,,,0.05,,2013-03-16 11:22:00,
2013-03-16 06:32:00,27.0,25.0,29.88,NNE,33,9.0,20.0,93,0.00,,,0.05,,2013-03-16 11:32:00,
2013-03-16 06:42:00,27.0,25.0,29.88,NNE,33,9.0,20.0,93,0.00,,,0.05,,2013-03-16 11:42:00,
2013-03-16 06:52:00,27.0,25.0,29.89,NNE,24,8.0,18.0,93,0.00,,,0.05,,2013-03-16 11:52:00,
2013-03-16 07:02:00,26.0,24.0,29.90,NE,52,8.0,17.0,93,0.00,,,0.05,,2013-03-16 12:02:00,
2013-03-16 07:12:00,26.0,24.0,29.90,NE,52,8.0,17.0,93,0.00,,,0.05,,2013-03-16 12:12:00,
2013-03-16 07:22:00,26.0,25.0,29.91,NE,55,8.0,14.0,94,0.00,,,0.05,,2013-03-16 12:22:00,
2013-03-16 07:32:00,26.0,25.0,29.91,ENE,57,7.0,12.0,94,0.00,,,0.05,,2013-03-16 12:32:00,
2013-03-16 07:42:00,26.0,25.0,29.91,ENE,57,7.0,12.0,94,0.00,,,0.05,,2013-03-16 12:42:00,
2013-03-16 07:52:00,26.0,25.0,29.91,ENE,58,7.0,13.0,94,0.00,,,0.05,,2013-03-16 12:52:00,
2013-03-16 08:02:00,26.0,25.0,29.92,NE,37,9.0,19.0,94,0.00,,,0.05,,2013-03-16 13:02:00,
2013-03-16 08:12:00,26.0,25.0,29.92,NE,37,9.0,19.0,94,0.00,,,0.05,,2013-03-16 13:12:00,
2013-03-16 08:22:00,26.0,25.0,29.92,ENE,71,5.0,14.0,94,0.00,,,0.05,,2013-03-16 13:22:00,
2013-03-16 08:32:00,26.0,24.0,29.93,NNE,30,7.0,18.0,93,0.00,,,0.05,,2013-03-16 13:32:00,
2013-03-16 08:42:00,26.0,24.0,29.93,NNE,30,7.0,18.0,93,0.00,,,0.05,,2013-03-16 13:42:00,
2013-03-16 08:53:00,24.0,22.0,29.95,NE,41,8.0,16.0,93,0.00,,,0.05,,2013-03-16 13:53:00,
2013-03-16 09:02:00,24.0,22.0,29.96,NNE,17,6.0,11.0,93,0.00,,,0.05,,2013-03-16 14:02:00,
2013-03-16 09:12:00,24.0,22.0,29.96,NNE,17,6.0,11.0,93,0.00,,,0.05,,2013-03-16 14:12:00,
2013-03-16 09:22:00,23.0,21.0,29.96,NNE,28,10.0,14.0,93,0.00,,,0.05,,2013-03-16 14:22:00,
2013-03-16 09:32:00,23.0,21.0,29.96,NE,36,9.0,18.0,93,0.00,,,0.05,,2013-03-16 14:32:00,
2013-03-16 09:42:00,23.0,21.0,29.96,NE,36,9.0,18.0,93,0.00,,,0.05,,2013-03-16 14:42:00,
2013-03-16 09:52:00,23.0,21.0,29.96,NE,35,9.0,18.0,93,0.00,,,0.05,,2013-03-16 14:52:00,
2013-03-16 10:02:00,24.0,22.0,29.98,NNE,14,4.0,12.0,93,0.00,,,0.05,,2013-03-16 15:02:00,
2013-03-16 10:12:00,24.0,22.0,29.98,NNE,14,4.0,12.0,93,0.00,,,0.05,,2013-03-16 15:12:00,
2013-03-16 10:22:00,24.0,22.0,29.99,NNW,331,5.0,14.0,92,0.00,,,0.05,,2013-03-16 15:22:00,
2013-03-16 10:33:00,24.0,22.0,30.01,NNE,28,5.0,11.0,91,0.00,,,0.05,,2013-03-16 15:33:00,
2013-03-16 10:53:00,24.0,22.0,30.01,NNE,27,4.0,10.0,91,0.00,,,0.05,,2013-03-16 15:53:00,
2013-03-16 11:03:00,24.0,22.0,30.01,NNE,17,5.0,9.0,90,0.00,,,0.05,,2013-03-16 16:03:00,
2013-03-16 11:12:00,24.0,22.0,30.01,NNE,17,5.0,9.0,90,0.00,,,0.05,,2013-03-16 16:12:00,
2013-03-16 11:22:00,24.0,22.0,30.02,North,351,6.0,11.0,90,0.00,,,0.05,,2013-03-16 16:22:00,
2013-03-16 11:33:00,24.0,21.0,30.03,NNE,24,6.0,11.0,89,0.00,,,0.05,,2013-03-16 16:33:00,
2013-03-16 11:42:00,24.0,21.0,30.03,NNE,24,6.0,11.0,89,0.00,,,0.05,,2013-03-16 16:42:00,
2013-03-16 11:53:00,24.0,22.0,30.04,North,5,8.0,11.0,90,0.00,,,0.05,,2013-03-16 16:53:00,
2013-03-16 12:03:00,24.0,21.0,30.04,NW,322,6.0,11.0,89,0.00,,,0.05,,2013-03-16 17:03:00,
2013-03-16 12:12:00,24.0,21.0,30.04,NW,322,6.0,11.0,89,0.00,,,0.05,,2013-03-16 17:12:00,
2013-03-16 12:22:00,24.0,21.0,30.05,North,360,7.0,11.0,88,0.00,,,0.05,,2013-03-16 17:22:00,
2013-03-16 12:32:00,25.0,22.0,30.05,NW,317,7.0,11.0,87,0.00,,,0.05,,2013-03-16 17:32:00,
2013-03-16 12:42:00,25.0,22.0,30.05,NW,317,7.0,11.0,87,0.00,,,0.05,,2013-03-16 17:42:00,
2013-03-16 12:53:00,26.0,22.0,30.05,NW,312,4.0,8.0,85,0.00,,,0.05,,2013-03-16 17:53:00,
2013-03-16 13:02:00,27.0,23.0,30.05,NNW,331,5.0,9.0,83,0.00,,,0.05,,2013-03-16 18:02:00,
2013-03-16 13:13:00,27.0,23.0,30.05,NNW,331,5.0,9.0,83,0.00,,,0.05,,2013-03-16 18:13:00,
2013-03-16 13:22:00,27.0,22.0,30.05,NNE,22,5.0,11.0,82,0.00,,,0.05,,2013-03-16 18:22:00,
2013-03-16 13:32:00,28.0,23.0,30.05,NNE,22,5.0,9.0,80,0.00,,,0.05,,2013-03-16 18:32:00,
2013-03-16 13:42:00,28.0,23.0,30.05,NNE,22,5.0,9.0,80,0.00,,,0.05,,2013-03-16 18:42:00,
2013-03-16 13:53:00,28.0,23.0,30.05,NW,304,3.0,7.0,80,0.00,,,0.05,,2013-03-16 18:53:00,
2013-03-16 14:02:00,29.0,23.0,30.04,WNW,288,4.0,8.0,78,0.00,,,0.05,,2013-03-16 19:02:00,
2013-03-16 14:12:00,29.0,23.0,30.04,WNW,288,4.0,8.0,78,0.00,,,0.05,,2013-03-16 19:12:00,
2013-03-16 14:22:00,29.0,23.0,30.04,NE,38,3.0,8.0,77,0.00,,,0.04,,2013-03-16 19:22:00,
2013-03-16 14:32:00,30.0,23.0,30.04,WNW,293,5.0,9.0,75,0.00,,,0.04,,2013-03-16 19:32:00,
2013-03-16 14:42:00,30.0,23.0,30.04,WNW,293,5.0,9.0,75,0.00,,,0.04,,2013-03-16 19:42:00,
2013-03-16 14:53:00,30.0,22.0,30.04,NE,40,6.0,9.0,73,0.00,,,0.04,,2013-03-16 19:53:00,
2013-03-16 15:02:00,31.0,23.0,30.04,NW,314,8.0,12.0,71,0.00,,,0.04,,2013-03-16 20:02:00,
2013-03-16 15:12:00,31.0,23.0,30.04,NW,314,8.0,12.0,71,0.00,,,0.04,,2013-03-16 20:12:00,
2013-03-16 15:22:00,30.0,22.0,30.04,North,5,5.0,12.0,72,0.00,,,0.01,,2013-03-16 20:22:00,
2013-03-16 15:32:00,30.0,22.0,30.05,NNW,347,4.0,13.0,72,0.00,,,0.01,,2013-03-16 20:32:00,
2013-03-16 15:42:00,30.0,22.0,30.05,NNW,347,4.0,13.0,72,0.00,,,0.01,,2013-03-16 20:42:00,
2013-03-16 15:52:00,30.0,21.0,30.05,West,279,8.0,12.0,70,0.00,,,0.01,,2013-03-16 20:52:00,
2013-03-16 16:02:00,30.0,21.0,30.05,North,5,6.0,11.0,68,0.00,,,0.01,,2013-03-16 21:02:00,
2013-03-16 16:12:00,30.0,21.0,30.05,North,5,6.0,11.0,68,0.00,,,0.01,,2013-03-16 21:12:00,
2013-03-16 16:22:00,30.0,21.0,30.06,WNW,287,8.0,12.0,69,0.00,,,0.01,,2013-03-16 21:22:00,
2013-03-16 16:32:00,30.0,21.0,30.05,NNW,327,6.0,12.0,70,0.00,,,0.01,,2013-03-16 21:32:00,
2013-03-16 16:43:00,30.0,21.0,30.05,NNW,327,6.0,12.0,70,0.00,,,0.01,,2013-03-16 21:43:00,
2013-03-16 16:53:00,30.0,21.0,30.06,NW,313,5.0,9.0,69,0.00,,,0.01,,2013-03-16 21:53:00,
2013-03-16 17:03:00,30.0,21.0,30.06,WNW,288,7.0,11.0,69,0.00,,,0.01,,2013-03-16 22:03:00,
2013-03-16 17:12:00,30.0,21.0,30.06,WNW,288,7.0,11.0,69,0.00,,,0.01,,2013-03-16 22:12:00,
2013-03-16 17:22:00,30.0,21.0,30.06,WNW,296,6.0,12.0,69,0.00,,,0.00,,2013-03-16 22:22:00,
2013-03-16 17:33:00,29.0,20.0,30.06,NNW,341,7.0,15.0,68,0.00,,,0.00,,2013-03-16 22:33:00,
2013-03-16 17:42:00,29.0,20.0,30.06,NNW,341,7.0,15.0,68,0.00,,,0.00,,2013-03-16 22:42:00,
2013-03-16 17:52:00,29.0,20.0,30.06,North,360,6.0,10.0,68,0.00,,,0.00,,2013-03-16 22:52:00,
2013-03-16 18:02:00,30.0,21.0,30.06,NW,315,4.0,9.0,69,0.00,,,0.00,,2013-03-16 23:02:00,
2013-03-16 18:12:00,30.0,21.0,30.06,NW,315,4.0,9.0,69,0.00,,,0.00,,2013-03-16 23:12:00,
2013-03-16 18:22:00,29.0,20.0,30.07,WNW,299,6.0,11.0,70,0.00,,,0.00,,2013-03-16 23:22:00,
2013-03-16 18:32:00,28.0,20.0,30.07,NNW,329,7.0,12.0,71,0.00,,,0.00,,2013-03-16 23:32:00,
2013-03-16 18:42:00,28.0,20.0,30.07,NNW,329,7.0,12.0,71,0.00,,,0.00,,2013-03-16 23:42:00,
2013-03-16 18:52:00,27.0,19.0,30.08,NW,323,8.0,13.0,71,0.00,,,0.00,,2013-03-16 23:52:00,
2013-03-16 19:01:00,27.0,20.0,30.09,NNW,331,5.0,10.0,73,0.00,,,0.00,,2013-03-17 00:01:00,
2013-03-16 19:12:00,27.0,20.0,30.09,NNW,331,5.0,10.0,73,0.00,,,0.00,,2013-03-17 00:12:00,
2013-03-16 19:22:00,27.0,20.0,30.09,NW,306,5.0,9.0,74,0.00,,,0.00,,2013-03-17 00:22:00,
2013-03-16 19:32:00,27.0,20.0,30.09,WNW,286,3.0,8.0,74,0.00,,,0.00,,2013-03-17 00:32:00,
2013-03-16 19:42:00,27.0,20.0,30.09,WNW,286,3.0,8.0,74,0.00,,,0.00,,2013-03-17 00:42:00,
2013-03-16 19:52:00,27.0,20.0,30.09,WNW,286,3.0,6.0,74,0.00,,,0.00,,2013-03-17 00:52:00,
2013-03-16 20:02:00,27.0,20.0,30.09,West,272,5.0,8.0,75,0.00,,,0.00,,2013-03-17 01:02:00,
2013-03-16 20:12:00,27.0,20.0,30.09,West,272,5.0,8.0,75,0.00,,,0.00,,2013-03-17 01:12:00,
2013-03-16 20:22:00,27.0,20.0,30.09,West,281,3.0,8.0,74,0.00,,,0.00,,2013-03-17 01:22:00,
2013-03-16 20:32:00,27.0,20.0,30.10,NW,312,5.0,8.0,74,0.00,,,0.00,,2013-03-17 01:32:00,
2013-03-16 20:42:00,27.0,20.0,30.10,NW,312,5.0,8.0,74,0.00,,,0.00,,2013-03-17 01:42:00,
2013-03-16 20:53:00,27.0,20.0,30.10,West,271,2.0,5.0,74,0.00,,,0.00,,2013-03-17 01:53:00,
2013-03-16 21:02:00,27.0,20.0,30.11,West,266,2.0,6.0,74,0.00,,,0.00,,2013-03-17 02:02:00,
2013-03-16 21:12:00,27.0,20.0,30.11,West,266,2.0,6.0,74,0.00,,,0.00,,2013-03-17 02:12:00,
2013-03-16 21:22:00,27.0,20.0,30.12,West,264,4.0,8.0,73,0.00,,,0.00,,2013-03-17 02:22:00,
2013-03-16 21:33:00,27.0,20.0,30.13,WNW,301,4.0,7.0,73,0.00,,,0.00,,2013-03-17 02:33:00,
2013-03-16 21:42:00,27.0,20.0,30.13,WNW,301,4.0,7.0,73,0.00,,,0.00,,2013-03-17 02:42:00,
2013-03-16 21:53:00,27.0,20.0,30.13,WNW,290,4.0,8.0,73,0.00,,,0.00,,2013-03-17 02:53:00,
2013-03-16 22:02:00,27.0,20.0,30.13,WNW,294,3.0,6.0,74,0.00,,,0.00,,2013-03-17 03:02:00,
2013-03-16 22:12:00,27.0,20.0,30.13,WNW,294,3.0,6.0,74,0.00,,,0.00,,2013-03-17 03:12:00,
2013-03-16 22:22:00,28.0,21.0,30.13,West,274,6.0,10.0,74,0.00,,,0.00,,2013-03-17 03:22:00,
2013-03-16 22:33:00,28.0,20.0,30.14,NW,304,9.0,16.0,71,0.00,,,0.00,,2013-03-17 03:33:00,
2013-03-16 22:43:00,28.0,20.0,30.14,NW,304,9.0,16.0,71,0.00,,,0.00,,2013-03-17 03:43:00,
2013-03-16 22:52:00,28.0,20.0,30.14,NW,304,7.0,12.0,70,0.00,,,0.00,,2013-03-17 03:52:00,
2013-03-16 23:03:00,28.0,20.0,30.14,NNW,328,7.0,12.0,71,0.00,,,0.00,,2013-03-17 04:03:00,
2013-03-16 23:12:00,28.0,20.0,30.14,NNW,328,7.0,12.0,71,0.00,,,0.00,,2013-03-17 04:12:00,
2013-03-16 23:23:00,28.0,20.0,30.14,NW,321,8.0,14.0,71,0.00,,,0.00,,2013-03-17 04:23:00,
2013-03-16 23:32:00,28.0,20.0,30.15,NW,319,5.0,12.0,72,0.00,,,0.00,,2013-03-17 04:32:00,
2013-03-16 23:42:00,28.0,20.0,30.15,NW,319,5.0,12.0,72,0.00,,,0.00,,2013-03-17 04:42:00,
2013-03-16 23:53:00,27.0,19.0,30.16,NW,305,6.0,12.0,72,0.00,,,0.00,,2013-03-17 04:53:00,